FW8724 Weather Reports


time (UTC)temp
C
wind
direction
speed
KPH
gust
KPH
rain 1hr
cm
rain 24hr
cm
rain mn
cm
humidity
%
barometer
mb
20260508163044 5 262 6.4 11.3 0.00 1.78 0.00 94 1002.3
20260508161540 5 312 8.0 14.5 0.00 1.78 0.00 93 1002.3
20260508160040 5 298 9.7 14.5 0.00 1.78 0.00 93 1002.1
20260508154545 5 346 8.0 12.9 0.00 1.78 0.00 94 1002.2
20260508153054 5 304 9.7 12.9 0.00 1.78 0.00 93 1002.3
20260508151545 5 317 8.0 12.9 0.00 1.78 0.00 94 1002.3
20260508150045 5 284 9.7 12.9 0.00 1.78 0.00 93 1002.3
20260508144550 5 314 6.4 11.3 0.00 1.78 0.00 94 1002.3
20260508143054 5 296 8.0 12.9 0.00 1.78 0.00 93 1002.4
20260508141600 5 310 8.0 11.3 0.00 1.78 0.00 94 1002.5
20260508140047 5 321 6.4 11.3 0.00 1.78 0.00 93 1002.8
20260508134545 5 298 4.8 12.9 0.00 1.78 0.00 93 1002.7
20260508133045 5 306 8.0 11.3 0.00 1.78 0.00 93 1002.7
20260508131556 5 305 8.0 11.3 0.00 1.78 0.00 92 1002.2
20260508130042 6 329 6.4 11.3 0.00 1.78 0.00 93 1002.2
20260508124539 6 299 6.4 9.7 0.00 1.78 0.00 93 1001.9
20260508123056 7 323 8.0 9.7 0.00 1.78 0.00 93 1001.9
20260508121548 7 359 1.6 8.0 0.00 1.78 0.00 94 1002.0
20260508120104 6 317 6.4 9.7 0.00 1.78 0.00 94 1002.1
20260508114555 6 311 3.2 6.4 0.00 1.78 0.00 94 1002.0
20260508113041 6 316 0.0 4.8 0.00 1.78 0.00 94 1002.1
20260508111549 6 307 4.8 6.4 0.00 1.78 0.00 94 1002.1
20260508110051 6 274 0.0 3.2 0.00 1.78 0.00 94 1002.3
20260508104547 6 274 0.0 3.2 0.00 1.78 0.00 94 1002.6
20260508103058 5 0 0.0 3.2 0.00 1.78 0.00 94 1002.4
20260508101551 5 0 0.0 3.2 0.00 1.78 0.00 94 1002.4
20260508100040 5 274 0.0 3.2 0.00 1.78 0.00 94 1002.5
20260508094540 5 274 1.6 3.2 0.00 1.78 0.00 94 1002.2
20260508093046 4 274 0.0 3.2 0.00 1.78 0.00 94 1002.2
20260508091545 5 274 1.6 3.2 0.00 1.78 0.00 94 1002.3
20260508090050 5 274 1.6 3.2 0.00 1.78 0.00 94 1002.0
20260508084609 5 274 0.0 6.4 0.00 1.78 0.00 94 1001.9
20260508083045 5 276 3.2 4.8 0.00 1.78 0.00 94 1001.8
20260508081539 5 86 0.0 3.2 0.00 1.78 0.00 94 1001.4
20260508080039 5 86 0.0 3.2 0.00 1.78 0.00 94 1001.7
20260508074538 5 86 1.6 3.2 0.00 1.78 0.00 94 1001.5
20260508073045 6 89 0.0 3.2 0.00 1.78 0.00 94 1001.7
20260508071550 6 89 0.0 3.2 0.00 1.78 0.00 94 1001.8
20260508070040 6 89 0.0 3.2 0.00 1.78 0.00 94 1001.9
20260508064549 6 86 1.6 3.2 0.00 1.78 0.00 94 1001.8
20260508063056 6 86 1.6 3.2 0.00 1.78 0.00 94 1001.8
20260508061548 6 80 1.6 4.8 0.00 1.78 0.00 94 1001.8
20260508060046 6 48 1.6 6.4 0.00 1.78 0.00 94 1001.7
20260508054544 6 66 1.6 6.4 0.00 1.78 0.00 94 1002.1
20260508053042 6 31 1.6 3.2 0.00 1.78 0.00 94 1002.2
20260508051542 6 5 1.6 4.8 0.00 1.78 0.00 93 1002.4
20260508050048 6 359 3.2 6.4 0.00 1.78 0.00 93 1002.1
20260508044545 6 359 3.2 3.2 0.00 1.78 0.00 93 1002.1
20260508043056 6 4 1.6 6.4 0.00 1.78 0.00 93 1002.1
20260508041549 7 76 1.6 4.8 0.00 1.78 0.00 93 1002.3
20260508040042 7 75 1.6 4.8 0.00 1.78 0.00 93 1002.4
20260508034539 7 332 3.2 8.0 0.00 1.78 0.00 92 1002.4
20260508033039 8 216 0.0 3.2 0.00 1.78 0.00 93 1002.5
20260508031544 8 0 0.0 3.2 0.00 1.78 0.00 93 1002.2
20260508030051 8 216 1.6 3.2 0.00 1.78 0.00 93 1002.1
20260508024541 7 216 3.2 3.2 0.00 1.78 1.78 93 1002.2
20260508023038 7 216 3.2 3.2 0.00 1.78 1.78 93 1002.3
20260508021551 7 0 0.0 3.2 0.03 1.78 1.78 92 1002.6
20260508020049 7 172 0.0 4.8 0.05 1.78 1.78 93 1002.5
20260508014544 7 228 3.2 3.2 0.08 1.78 1.78 93 1002.9
20260508013053 7 267 1.6 3.2 0.10 1.78 1.78 92 1003.0
20260508011543 7 271 1.6 3.2 0.13 1.75 1.75 92 1002.8
20260508010038 7 244 0.0 3.2 0.15 1.73 1.73 92 1002.8
20260508004538 7 244 1.6 3.2 0.20 1.70 1.70 92 1002.7
20260508003045 7 244 0.0 3.2 0.20 1.68 1.68 92 1002.8
20260508001607 7 241 1.6 4.8 0.15 1.63 1.63 92 1002.9
20260508000047 7 221 3.2 11.3 0.10 1.57 1.57 91 1002.9
20260507234547 8 272 14.5 17.7 0.03 1.47 1.47 89 1002.8
20260507233046 9 249 4.8 11.3 0.00 1.47 1.47 91 1002.1
20260507231545 9 212 6.4 14.5 0.00 1.47 1.47 90 1002.1
20260507230044 11 212 19.3 33.8 0.00 1.47 1.47 84 1001.8
20260507224547 12 182 9.7 22.5 0.00 1.47 1.47 86 1001.2
20260507223039 12 153 16.1 20.9 0.00 1.47 1.47 86 1001.1
20260507221538 12 110 14.5 29.0 0.00 1.47 1.47 87 1001.0
20260507220048 12 139 14.5 29.0 0.00 1.47 1.47 87 1001.0
20260507214548 12 143 16.1 25.7 0.00 1.47 1.47 87 1001.1
20260507213044 12 134 17.7 33.8 0.00 1.47 1.47 88 1000.8
20260507211539 12 131 17.7 38.6 0.00 1.47 1.47 88 1000.8
20260507210041 12 146 19.3 32.2 0.03 1.47 1.47 88 1001.0
20260507204552 12 138 19.3 37.0 0.03 1.47 1.47 88 1000.9
20260507203048 12 158 17.7 32.2 0.15 1.47 1.47 88 1000.8
20260507201542 12 148 22.5 35.4 0.30 1.47 1.47 88 1000.4
20260507200043 12 124 22.5 38.6 0.33 1.45 1.45 89 1000.5
20260507194541 12 145 27.4 40.2 0.38 1.45 1.45 89 1000.9
20260507193039 12 91 24.1 38.6 0.38 1.32 1.32 89 1001.5
20260507191538 12 145 19.3 27.4 0.36 1.17 1.17 89 1003.1
20260507190052 12 121 19.3 30.6 0.48 1.12 1.12 89 1003.0
20260507184548 12 142 14.5 29.0 0.66 1.07 1.07 89 1003.0
20260507183044 12 148 8.0 24.1 0.79 0.91 0.91 89 1003.5
20260507181540 12 139 20.9 35.4 0.81 0.81 0.81 89 1003.6
20260507180039 12 193 9.7 22.5 0.64 0.64 0.64 90 1004.2
20260507174551 12 203 9.7 17.7 0.41 0.41 0.41 88 1004.3
20260507173046 12 136 14.5 41.8 0.13 0.13 0.13 87 1003.9
20260507171543 12 118 22.5 48.3 0.00 0.00 0.00 85 1002.9
20260507170049 13 139 29.0 51.5 0.00 0.00 0.00 83 1002.7
20260507164539 13 146 24.1 49.9 0.00 0.00 0.00 79 1002.9